,,Stat5,,Stat1,,Stat2,,Stat3,,Stat4,,Wind1,,Wind1,
time,status,PA1M_AVG,status,PR1M_SUM,status,RH1M_AVG,status,SR1M_AVG,status,TA1M_AVG,status,W1dAve1m,status,W1sAve1m,
2003-06-07, 00:00:00,VALID,917.664,VALID,0,VALID,99.2347,VALID,-0.0339617,VALID,20.2264,VALID,121,VALID,0.434422,
2003-06-07, 00:01:00,VALID,917.657,VALID,0,VALID,99.1966,VALID,-0.0509425,VALID,20.1815,VALID,130,VALID,0.715278,
2003-06-07, 00:02:00,VALID,917.65,VALID,0,VALID,99.2182,VALID,-0.0509425,VALID,20.1425,VALID,141,VALID,0.895633,
2003-06-07, 00:03:00,VALID,917.655,VALID,0,VALID,99.1775,VALID,-0.0509425,VALID,20.0973,VALID,154,VALID,1.26563,
2003-06-07, 00:04:00,VALID,917.654,VALID,0,VALID,99.1775,VALID,-0.0509425,VALID,20.0556,VALID,152,VALID,1.05357,
2003-06-07, 00:05:00,VALID,917.652,VALID,0,VALID,99.1763,VALID,-0.0679233,VALID,20.0106,VALID,142,VALID,0.940304,
2003-06-07, 00:06:00,VALID,917.645,VALID,0,VALID,99.2119,VALID,-0.0339617,VALID,19.9682,VALID,131,VALID,0.691623,
2003-06-07, 00:07:00,VALID,917.641,VALID,0,VALID,99.1699,VALID,-0.0509425,VALID,19.9232,VALID,115,VALID,0.668359,
2003-06-07, 00:08:00,VALID,917.616,VALID,0,VALID,99.1826,VALID,-0.0509425,VALID,19.8716,VALID,89,VALID,0.52426,
2003-06-07, 00:09:00,VALID,917.607,VALID,0,VALID,99.2627,VALID,-0.0849042,VALID,19.8552,VALID,86,VALID,0.416385,
2003-06-07, 00:10:00,VALID,917.601,VALID,0,VALID,99.2945,VALID,-0.0339617,VALID,19.8492,VALID,85,VALID,0.417863,
2003-06-07, 00:11:00,VALID,917.597,VALID,0,VALID,99.3276,VALID,-0.0339617,VALID,19.846,VALID,87,VALID,0.592516,
2003-06-07, 00:12:00,VALID,917.591,VALID,0,VALID,99.3403,VALID,-0.0339617,VALID,19.8296,VALID,93,VALID,0.528125,
2003-06-07, 00:13:00,VALID,917.581,VALID,0,VALID,99.3861,VALID,-0.0169808,VALID,19.8366,VALID,99,VALID,0.821232,
2003-06-07, 00:14:00,VALID,917.562,VALID,0,VALID,99.4598,VALID,-0.0509425,VALID,19.8683,VALID,100,VALID,0.693462,
2003-06-07, 00:15:00,VALID,917.552,VALID,0,VALID,99.5196,VALID,-0.0169808,VALID,19.9334,VALID,103,VALID,0.683929,
2003-06-07, 00:16:00,VALID,917.537,VALID,0,VALID,99.5323,VALID,-0.0509425,VALID,19.956,VALID,103,VALID,0.660045,
2003-06-07, 00:17:00,VALID,917.521,VALID,0,VALID,99.5081,VALID,-0.0169808,VALID,19.9332,VALID,96,VALID,0.930889,
2003-06-07, 00:18:00,VALID,917.498,VALID,0,VALID,99.4675,VALID,-0.0849042,VALID,19.8947,VALID,98,VALID,0.764476,
2003-06-07, 00:19:00,VALID,917.483,VALID,0,VALID,99.4636,VALID,-0.0339617,VALID,19.8751,VALID,112,VALID,0.868527,
2003-06-07, 00:20:00,VALID,917.474,VALID,0,VALID,99.4484,VALID,-0.0849042,VALID,19.8661,VALID,141,VALID,0.792578,
2003-06-07, 00:21:00,VALID,917.461,VALID,0,VALID,99.4547,VALID,-0.0679233,VALID,19.8527,VALID,158,VALID,0.719196,
2003-06-07, 00:22:00,VALID,917.445,VALID,0,VALID,99.4764,VALID,-0.0509425,VALID,19.8527,VALID,148,VALID,1.0062,
2003-06-07, 00:23:00,VALID,917.429,VALID,0,VALID,99.4547,VALID,-0.0849042,VALID,19.8527,VALID,148,VALID,0.858758,
2003-06-07, 00:24:00,VALID,917.439,VALID,0,VALID,99.4496,VALID,-0.0849042,VALID,19.8234,VALID,141,VALID,0.996875,
2003-06-07, 00:25:00,VALID,917.44,VALID,0,VALID,99.4865,VALID,-0.0509425,VALID,19.8301,VALID,126,VALID,0.89375,
2003-06-07, 00:26:00,VALID,917.443,VALID,0,VALID,99.4878,VALID,-0.0169808,VALID,19.8232,VALID,126,VALID,0.671675,
2003-06-07, 00:27:00,VALID,917.422,VALID,0,VALID,99.5259,VALID,0.0339617,VALID,19.8289,VALID,150,VALID,0.558594,
2003-06-07, 00:28:00,VALID,917.399,VALID,0,VALID,99.545,VALID,0.0509425,VALID,19.8579,VALID,147,VALID,0.930804,
2003-06-07, 00:29:00,VALID,917.382,VALID,0,VALID,99.5641,VALID,0,VALID,19.8741,VALID,137,VALID,0.909766,
2003-06-07, 00:30:00,VALID,917.379,VALID,0,VALID,99.5628,VALID,0.0509425,VALID,19.8808,VALID,148,VALID,0.64933,
2003-06-07, 00:31:00,VALID,917.371,VALID,0,VALID,99.5501,VALID,0.0339617,VALID,19.8542,VALID,158,VALID,0.386259,
2003-06-07, 00:32:00,VALID,917.368,VALID,0,VALID,99.5272,VALID,0.0509425,VALID,19.8254,VALID,164,VALID,0.417558,
2003-06-07, 00:33:00,VALID,917.346,VALID,0,VALID,99.4446,VALID,0.0679233,VALID,19.7479,VALID,93,VALID,0.789955,
2003-06-07, 00:34:00,VALID,917.356,VALID,0,VALID,99.306,VALID,0.0849042,VALID,19.6449,VALID,68,VALID,0.942411,
2003-06-07, 00:35:00,VALID,917.354,VALID,0,VALID,99.4128,VALID,0.0339617,VALID,19.6354,VALID,95,VALID,0.828325,
2003-06-07, 00:36:00,VALID,917.344,VALID,0,VALID,99.5272,VALID,0.0169808,VALID,19.706,VALID,119,VALID,0.289522,
2003-06-07, 00:37:00,VALID,917.325,VALID,0,VALID,99.5527,VALID,0.0509425,VALID,19.7447,VALID,84,VALID,0.440848,
2003-06-07, 00:38:00,VALID,917.325,VALID,0,VALID,99.5399,VALID,0.0169808,VALID,19.7291,VALID,65,VALID,0.56543,
2003-06-07, 00:39:00,VALID,917.317,VALID,0,VALID,99.5018,VALID,0.0169808,VALID,19.671,VALID,43,VALID,0.615848,
2003-06-07, 00:40:00,VALID,917.309,VALID,0,VALID,99.414,VALID,0.0679233,VALID,19.629,VALID,67,VALID,0.52114,
2003-06-07, 00:41:00,VALID,917.281,VALID,0,VALID,99.3835,VALID,0.0169808,VALID,19.5845,VALID,62,VALID,0.517064,
2003-06-07, 00:42:00,VALID,917.265,VALID,0,VALID,99.4115,VALID,-0.0509425,VALID,19.5915,VALID,62,VALID,0.390179,
2003-06-07, 00:43:00,VALID,917.268,VALID,0,VALID,99.3823,VALID,-0.0339617,VALID,19.5758,VALID,62,VALID,0.278125,
2003-06-07, 00:44:00,VALID,917.258,VALID,0,VALID,99.3454,VALID,-0.0339617,VALID,19.5466,VALID,82,VALID,0.505809,
2003-06-07, 00:45:00,VALID,917.257,VALID,0,VALID,99.2157,VALID,-0.0339617,VALID,19.4852,VALID,76,VALID,0.640165,
2003-06-07, 00:46:00,VALID,917.254,VALID,0,VALID,99.2055,VALID,-0.0509425,VALID,19.4299,VALID,81,VALID,0.515625,
2003-06-07, 00:47:00,VALID,917.228,VALID,0,VALID,98.9779,VALID,-0.0679233,VALID,19.3462,VALID,55,VALID,0.902734,
2003-06-07, 00:48:00,VALID,917.215,VALID,0,VALID,99.0733,VALID,-0.0679233,VALID,19.2759,VALID,65,VALID,1.20446,
2003-06-07, 00:49:00,VALID,917.181,VALID,0,VALID,99.4725,VALID,-0.0679233,VALID,19.3946,VALID,85,VALID,0.646599,
2003-06-07, 00:50:00,VALID,917.153,VALID,0,VALID,99.47,VALID,-0.0509425,VALID,19.4564,VALID,56,VALID,1.17229,
2003-06-07, 00:51:00,VALID,917.138,VALID,0,VALID,99.2449,VALID,-0.0339617,VALID,19.3787,VALID,57,VALID,1.07411,
2003-06-07, 00:52:00,VALID,917.13,VALID,0,VALID,99.161,VALID,-0.101885,VALID,19.3303,VALID,54,VALID,1.5558,
2003-06-07, 00:53:00,VALID,917.118,VALID,0,VALID,99.3136,VALID,-0.0679233,VALID,19.3402,VALID,55,VALID,1.16426,
2003-06-07, 00:54:00,VALID,917.091,VALID,0,VALID,99.4242,VALID,-0.0509425,VALID,19.3958,VALID,69,VALID,1.1721,
2003-06-07, 00:55:00,VALID,917.103,VALID,0,VALID,99.4675,VALID,-0.0339617,VALID,19.4271,VALID,97,VALID,1.12232,
2003-06-07, 00:56:00,VALID,917.082,VALID,0,VALID,99.5081,VALID,-0.0679233,VALID,19.4525,VALID,126,VALID,1.01016,
2003-06-07, 00:57:00,VALID,917.075,VALID,0,VALID,99.5247,VALID,-0.0339617,VALID,19.476,VALID,135,VALID,0.937054,
2003-06-07, 00:58:00,VALID,917.073,VALID,0,VALID,99.5425,VALID,0,VALID,19.4882,VALID,133,VALID,0.626838,
2003-06-07, 00:59:00,VALID,917.097,VALID,0,VALID,99.531,VALID,0,VALID,19.4885,VALID,132,VALID,0.555921,
2003-06-07, 01:00:00,VALID,917.109,VALID,0,VALID,99.5043,VALID,-0.0509425,VALID,19.4691,VALID,96,VALID,0.781027,
2003-06-07, 01:01:00,VALID,917.117,VALID,0,VALID,99.4738,VALID,-0.0169808,VALID,19.4338,VALID,108,VALID,0.402232,
2003-06-07, 01:02:00,VALID,917.123,VALID,0,VALID,99.4268,VALID,-0.0339617,VALID,19.3723,VALID,78,VALID,0.642829,
2003-06-07, 01:03:00,VALID,917.123,VALID,0,VALID,99.4573,VALID,-0.0849042,VALID,19.3437,VALID,86,VALID,0.811351,
2003-06-07, 01:04:00,VALID,917.117,VALID,0,VALID,99.5056,VALID,-0.0339617,VALID,19.3628,VALID,103,VALID,0.520759,
2003-06-07, 01:05:00,VALID,917.101,VALID,0,VALID,99.498,VALID,-0.0679233,VALID,19.3631,VALID,105,VALID,0.37207,
2003-06-07, 01:06:00,VALID,917.1,VALID,0,VALID,99.4764,VALID,-0.0339617,VALID,19.3372,VALID,105,VALID,0.330134,
2003-06-07, 01:07:00,VALID,917.085,VALID,0,VALID,99.4738,VALID,-0.0339617,VALID,19.298,VALID,86,VALID,0.542279,
2003-06-07, 01:08:00,VALID,917.059,VALID,0,VALID,99.4191,VALID,-0.0339617,VALID,19.2466,VALID,69,VALID,0.609992,
2003-06-07, 01:09:00,VALID,917.052,VALID,0,VALID,99.428,VALID,-0.0509425,VALID,19.2049,VALID,77,VALID,0.50067,
2003-06-07, 01:10:00,VALID,917.018,VALID,0,VALID,99.5069,VALID,-0.0679233,VALID,19.2109,VALID,98,VALID,0.511384,
2003-06-07, 01:11:00,VALID,916.994,VALID,0,VALID,99.5781,VALID,0,VALID,19.2717,VALID,99,VALID,0.589944,
2003-06-07, 01:12:00,VALID,916.981,VALID,0,VALID,99.601,VALID,0.0339617,VALID,19.2968,VALID,97,VALID,0.517004,
2003-06-07, 01:13:00,VALID,916.965,VALID,0,VALID,99.5679,VALID,0.0679233,VALID,19.2846,VALID,92,VALID,0.377455,
2003-06-07, 01:14:00,VALID,916.952,VALID,0,VALID,99.4929,VALID,0.0339617,VALID,19.2067,VALID,68,VALID,1.19238,
2003-06-07, 01:15:00,VALID,916.923,VALID,0,VALID,99.4954,VALID,0,VALID,19.198,VALID,73,VALID,0.895536,
2003-06-07, 01:16:00,VALID,916.911,VALID,0,VALID,99.5399,VALID,0.0509425,VALID,19.2039,VALID,78,VALID,0.4892,
2003-06-07, 01:17:00,VALID,916.879,VALID,0,VALID,99.5196,VALID,0.0169808,VALID,19.1871,VALID,78,VALID,0.148438,
2003-06-07, 01:18:00,VALID,916.87,VALID,0,VALID,99.3632,VALID,0.101885,VALID,19.0873,VALID,78,VALID,0.468973,
2003-06-07, 01:19:00,VALID,916.884,VALID,0,VALID,99.3937,VALID,0.0509425,VALID,19.0555,VALID,78,VALID,0.666295,
2003-06-07, 01:20:00,VALID,916.912,VALID,0,VALID,99.5704,VALID,0.0679233,VALID,19.1131,VALID,87,VALID,0.742388,
2003-06-07, 01:21:00,VALID,916.921,VALID,0,VALID,99.6366,VALID,0.0169808,VALID,19.2069,VALID,97,VALID,0.455653,
2003-06-07, 01:22:00,VALID,916.93,VALID,0,VALID,99.648,VALID,0.0339617,VALID,19.2625,VALID,99,VALID,0.304911,
2003-06-07, 01:23:00,VALID,916.927,VALID,0,VALID,99.5552,VALID,0.0679233,VALID,19.1811,VALID,98,VALID,0.318164,
2003-06-07, 01:24:00,VALID,916.925,VALID,0,VALID,99.3174,VALID,0.0509425,VALID,19.0589,VALID,98,VALID,0.801562,
2003-06-07, 01:25:00,VALID,916.912,VALID,0,VALID,99.4903,VALID,0.0679233,VALID,19.0875,VALID,99,VALID,0.596048,
2003-06-07, 01:26:00,VALID,916.899,VALID,0,VALID,99.5209,VALID,0.0339617,VALID,19.1394,VALID,130,VALID,0.542352,
2003-06-07, 01:27:00,VALID,916.889,VALID,0,VALID,99.5565,VALID,0.0169808,VALID,19.1883,VALID,129,VALID,0.497098,
2003-06-07, 01:28:00,VALID,916.886,VALID,0,VALID,99.5565,VALID,0.0169808,VALID,19.2238,VALID,121,VALID,0.697321,
2003-06-07, 01:29:00,VALID,916.885,VALID,0,VALID,99.5717,VALID,0,VALID,19.2856,VALID,114,VALID,0.792268,
2003-06-07, 01:30:00,VALID,916.883,VALID,0,VALID,99.573,VALID,0.0169808,VALID,19.3241,VALID,117,VALID,0.70818,
2003-06-07, 01:31:00,VALID,916.865,VALID,0,VALID,99.5679,VALID,0.0339617,VALID,19.34,VALID,120,VALID,0.486161,
2003-06-07, 01:32:00,VALID,916.836,VALID,0,VALID,99.4903,VALID,0.0169808,VALID,19.3402,VALID,119,VALID,0.289063,
2003-06-07, 01:33:00,VALID,916.815,VALID,0,VALID,99.0974,VALID,0,VALID,19.2074,VALID,119,VALID,0.481337,
2003-06-07, 01:34:00,VALID,916.81,VALID,0,VALID,99.203,VALID,0,VALID,19.1848,VALID,119,VALID,0.511489,
2003-06-07, 01:35:00,VALID,916.79,VALID,0,VALID,99.2106,VALID,0.0169808,VALID,19.198,VALID,132,VALID,0.607113,
2003-06-07, 01:36:00,VALID,916.791,VALID,0,VALID,99.1712,VALID,0,VALID,19.2079,VALID,143,VALID,0.64375,
2003-06-07, 01:37:00,VALID,916.782,VALID,0,VALID,99.2818,VALID,0.0169808,VALID,19.23,VALID,149,VALID,0.576563,
2003-06-07, 01:38:00,VALID,916.785,VALID,0,VALID,99.1165,VALID,0.0169808,VALID,19.2335,VALID,145,VALID,0.516226,
2003-06-07, 01:39:00,VALID,916.781,VALID,0,VALID,99.0326,VALID,0.0169808,VALID,19.2238,VALID,125,VALID,0.455423,
2003-06-07, 01:40:00,VALID,916.789,VALID,0,VALID,98.9868,VALID,0,VALID,19.2213,VALID,106,VALID,0.424777,
2003-06-07, 01:41:00,VALID,916.771,VALID,0,VALID,99.0109,VALID,0,VALID,19.1982,VALID,94,VALID,0.545117,
2003-06-07, 01:42:00,VALID,916.751,VALID,0,VALID,98.8952,VALID,0.0169808,VALID,19.2235,VALID,97,VALID,0.600223,
2003-06-07, 01:43:00,VALID,916.733,VALID,0,VALID,98.8304,VALID,0.0339617,VALID,19.195,VALID,86,VALID,0.708869,
2003-06-07, 01:44:00,VALID,916.712,VALID,0,VALID,98.9283,VALID,0.0339617,VALID,19.2206,VALID,90,VALID,0.70148,
2003-06-07, 01:45:00,VALID,916.71,VALID,0,VALID,99.0148,VALID,0,VALID,19.2724,VALID,95,VALID,0.756027,
2003-06-07, 01:46:00,VALID,916.708,VALID,0,VALID,98.9868,VALID,-0.0169808,VALID,19.3206,VALID,105,VALID,0.919196,
2003-06-07, 01:47:00,VALID,916.692,VALID,0,VALID,98.9677,VALID,0.0169808,VALID,19.379,VALID,111,VALID,0.778446,
2003-06-07, 01:48:00,VALID,916.664,VALID,0,VALID,98.8545,VALID,0.0339617,VALID,19.4209,VALID,112,VALID,0.442785,
2003-06-07, 01:49:00,VALID,916.625,VALID,0,VALID,98.4794,VALID,0,VALID,19.4279,VALID,103,VALID,0.374777,
2003-06-07, 01:50:00,VALID,916.595,VALID,0,VALID,98.2391,VALID,0,VALID,19.3593,VALID,97,VALID,0.532422,
2003-06-07, 01:51:00,VALID,916.581,VALID,0,VALID,98.0687,VALID,0.0169808,VALID,19.3628,VALID,90,VALID,0.225893,
2003-06-07, 01:52:00,VALID,916.559,VALID,0,VALID,97.9479,VALID,0,VALID,19.34,VALID,90,VALID,0.362592,
2003-06-07, 01:53:00,VALID,916.553,VALID,0,VALID,97.8385,VALID,0,VALID,19.3439,VALID,91,VALID,0.38384,
2003-06-07, 01:54:00,VALID,916.557,VALID,0,VALID,97.7304,VALID,0,VALID,19.3442,VALID,105,VALID,0.491518,
2003-06-07, 01:55:00,VALID,916.54,VALID,0,VALID,97.6948,VALID,0.0169808,VALID,19.3271,VALID,128,VALID,0.521875,
2003-06-07, 01:56:00,VALID,916.547,VALID,0,VALID,97.382,VALID,0,VALID,19.298,VALID,147,VALID,0.772837,
2003-06-07, 01:57:00,VALID,916.555,VALID,0,VALID,97.2994,VALID,0.0169808,VALID,19.2399,VALID,152,VALID,0.821691,
2003-06-07, 01:58:00,VALID,916.548,VALID,0,VALID,97.4367,VALID,0,VALID,19.2248,VALID,165,VALID,0.575893,
2003-06-07, 01:59:00,VALID,916.54,VALID,0,VALID,97.6134,VALID,0.0169808,VALID,19.231,VALID,153,VALID,0.580273,
2003-06-07, 02:00:00,VALID,916.535,VALID,0,VALID,97.5181,VALID,0,VALID,19.2116,VALID,141,VALID,0.494866,
2003-06-07, 02:01:00,VALID,916.518,VALID,0,VALID,97.2828,VALID,0,VALID,19.1597,VALID,149,VALID,0.444623,
2003-06-07, 02:02:00,VALID,916.505,VALID,0,VALID,97.3095,VALID,0,VALID,19.1083,VALID,148,VALID,0.198808,
2003-06-07, 02:03:00,VALID,916.493,VALID,0,VALID,97.5308,VALID,0,VALID,19.079,VALID,148,VALID,0.0582589,
2003-06-07, 02:04:00,VALID,916.463,VALID,0,VALID,97.6147,VALID,0,VALID,19.0624,VALID,148,VALID,0,
2003-06-07, 02:05:00,VALID,916.454,VALID,0,VALID,97.7215,VALID,0.0169808,VALID,19.0698,VALID,148,VALID,0.0424679,
2003-06-07, 02:06:00,VALID,916.448,VALID,0,VALID,97.6834,VALID,0,VALID,19.0403,VALID,156,VALID,0.362132,
2003-06-07, 02:07:00,VALID,916.45,VALID,0,VALID,97.7266,VALID,0,VALID,19.0311,VALID,179,VALID,0.667857,
2003-06-07, 02:08:00,VALID,916.457,VALID,0,VALID,97.6033,VALID,-0.0339617,VALID,19.0083,VALID,179,VALID,0.539258,
2003-06-07, 02:09:00,VALID,916.473,VALID,0,VALID,97.2612,VALID,0,VALID,18.9447,VALID,168,VALID,0.351786,
2003-06-07, 02:10:00,VALID,916.479,VALID,0,VALID,97.3083,VALID,0,VALID,18.8697,VALID,159,VALID,0.390165,
2003-06-07, 02:11:00,VALID,916.459,VALID,0,VALID,97.4965,VALID,-0.0509425,VALID,18.8218,VALID,155,VALID,0.272204,
2003-06-07, 02:12:00,VALID,916.442,VALID,0,VALID,97.7877,VALID,-0.0679233,VALID,18.8156,VALID,155,VALID,0.209821,
2003-06-07, 02:13:00,VALID,916.427,VALID,0,VALID,98.1196,VALID,-0.0849042,VALID,18.8446,VALID,155,VALID,0.0779018,
2003-06-07, 02:14:00,VALID,916.397,VALID,0,VALID,98.1424,VALID,-0.0509425,VALID,18.8709,VALID,155,VALID,0.218149,
2003-06-07, 02:15:00,VALID,916.38,VALID,0,VALID,98.2391,VALID,-0.0849042,VALID,18.893,VALID,155,VALID,0.194623,
2003-06-07, 02:16:00,VALID,916.359,VALID,0,VALID,98.4502,VALID,-0.0849042,VALID,18.9385,VALID,154,VALID,0.245536,
2003-06-07, 02:17:00,VALID,916.345,VALID,0,VALID,98.5888,VALID,-0.0509425,VALID,19.006,VALID,146,VALID,0.407227,
2003-06-07, 02:18:00,VALID,916.358,VALID,0,VALID,98.5354,VALID,-0.0679233,VALID,19.0509,VALID,127,VALID,0.330357,
2003-06-07, 02:19:00,VALID,916.353,VALID,0,VALID,98.4654,VALID,-0.0509425,VALID,19.0897,VALID,127,VALID,0.188189,
2003-06-07, 02:20:00,VALID,916.334,VALID,0,VALID,98.3942,VALID,-0.0339617,VALID,19.1162,VALID,127,VALID,0.390831,
2003-06-07, 02:21:00,VALID,916.319,VALID,0,VALID,98.1552,VALID,-0.0849042,VALID,19.1162,VALID,127,VALID,0.399554,
2003-06-07, 02:22:00,VALID,916.311,VALID,0,VALID,98.0534,VALID,-0.0169808,VALID,19.0994,VALID,101,VALID,0.491518,
2003-06-07, 02:23:00,VALID,916.303,VALID,0,VALID,98.1386,VALID,-0.0339617,VALID,19.1157,VALID,108,VALID,0.464143,
2003-06-07, 02:24:00,VALID,916.301,VALID,0,VALID,97.705,VALID,-0.0849042,VALID,19.074,VALID,141,VALID,0.576976,
2003-06-07, 02:25:00,VALID,916.299,VALID,0,VALID,97.9759,VALID,-0.0849042,VALID,19.0705,VALID,141,VALID,0.43058,
2003-06-07, 02:26:00,VALID,916.297,VALID,0,VALID,97.9263,VALID,-0.0679233,VALID,19.1065,VALID,141,VALID,0.507813,
2003-06-07, 02:27:00,VALID,916.278,VALID,0,VALID,97.9186,VALID,-0.0339617,VALID,19.1123,VALID,137,VALID,0.840848,
2003-06-07, 02:28:00,VALID,916.262,VALID,0,VALID,97.5804,VALID,-0.0339617,VALID,19.1162,VALID,146,VALID,0.465533,
2003-06-07, 02:29:00,VALID,916.266,VALID,0,VALID,97.4939,VALID,-0.0679233,VALID,19.1065,VALID,147,VALID,0.338816,
2003-06-07, 02:30:00,VALID,916.253,VALID,0,VALID,97.2472,VALID,-0.0679233,VALID,19.0708,VALID,132,VALID,0.396429,
2003-06-07, 02:31:00,VALID,916.258,VALID,0,VALID,96.9141,VALID,-0.0509425,VALID,18.9998,VALID,123,VALID,0.272545,
2003-06-07, 02:32:00,VALID,916.272,VALID,0,VALID,96.9649,VALID,-0.0679233,VALID,18.9382,VALID,129,VALID,0.339543,
2003-06-07, 02:33:00,VALID,916.282,VALID,0,VALID,96.9357,VALID,-0.0679233,VALID,18.8767,VALID,143,VALID,0.672335,
2003-06-07, 02:34:00,VALID,916.294,VALID,0,VALID,96.9077,VALID,-0.0339617,VALID,18.8322,VALID,144,VALID,0.733259,
2003-06-07, 02:35:00,VALID,916.298,VALID,0,VALID,97.0705,VALID,-0.0509425,VALID,18.7935,VALID,149,VALID,0.724414,
2003-06-07, 02:36:00,VALID,916.317,VALID,0,VALID,97.1875,VALID,-0.0679233,VALID,18.751,VALID,151,VALID,0.571429,
2003-06-07, 02:37:00,VALID,916.325,VALID,0,VALID,97.6147,VALID,-0.101885,VALID,18.7545,VALID,157,VALID,0.763557,
2003-06-07, 02:38:00,VALID,916.32,VALID,0,VALID,97.8678,VALID,-0.0339617,VALID,18.7898,VALID,146,VALID,0.384046,
2003-06-07, 02:39:00,VALID,916.343,VALID,0,VALID,97.5054,VALID,-0.0509425,VALID,18.758,VALID,121,VALID,0.398884,
2003-06-07, 02:40:00,VALID,916.342,VALID,0,VALID,97.9072,VALID,-0.0509425,VALID,18.7247,VALID,87,VALID,0.461607,
2003-06-07, 02:41:00,VALID,916.336,VALID,0,VALID,98.1679,VALID,-0.0679233,VALID,18.7644,VALID,108,VALID,0.740585,
2003-06-07, 02:42:00,VALID,916.333,VALID,0,VALID,98.0839,VALID,-0.0679233,VALID,18.8061,VALID,100,VALID,0.844669,
2003-06-07, 02:43:00,VALID,916.352,VALID,0,VALID,98.131,VALID,-0.0169808,VALID,18.8029,VALID,107,VALID,1.07321,
2003-06-07, 02:44:00,VALID,916.357,VALID,0,VALID,97.7927,VALID,-0.0509425,VALID,18.8285,VALID,105,VALID,0.848437,
2003-06-07, 02:45:00,VALID,916.364,VALID,0,VALID,97.8983,VALID,-0.0679233,VALID,18.8682,VALID,112,VALID,1.30379,
2003-06-07, 02:46:00,VALID,916.353,VALID,0,VALID,97.8678,VALID,-0.0339617,VALID,18.932,VALID,129,VALID,0.818244,
2003-06-07, 02:47:00,VALID,916.348,VALID,0,VALID,97.7597,VALID,-0.0509425,VALID,19.003,VALID,137,VALID,1.21464,
2003-06-07, 02:48:00,VALID,916.326,VALID,0,VALID,97.5295,VALID,-0.0679233,VALID,19.0678,VALID,120,VALID,1.19888,
2003-06-07, 02:49:00,VALID,916.31,VALID,0,VALID,97.0501,VALID,-0.0509425,VALID,19.1063,VALID,120,VALID,1.3942,
2003-06-07, 02:50:00,VALID,916.324,VALID,0,VALID,96.9357,VALID,-0.0169808,VALID,19.1321,VALID,138,VALID,1.42167,
2003-06-07, 02:51:00,VALID,916.306,VALID,0,VALID,96.9802,VALID,-0.0679233,VALID,19.1642,VALID,166,VALID,1.30193,
2003-06-07, 02:52:00,VALID,916.284,VALID,0,VALID,96.1448,VALID,-0.0339617,VALID,19.1413,VALID,91,VALID,1.11987,
2003-06-07, 02:53:00,VALID,916.311,VALID,0,VALID,96.4576,VALID,-0.0509425,VALID,19.1254,VALID,115,VALID,1.35723,
2003-06-07, 02:54:00,VALID,916.304,VALID,0,VALID,96.628,VALID,-0.0509425,VALID,19.148,VALID,134,VALID,0.901339,
2003-06-07, 02:55:00,VALID,916.278,VALID,0,VALID,96.6928,VALID,-0.0339617,VALID,19.1681,VALID,128,VALID,1.03791,
2003-06-07, 02:56:00,VALID,916.278,VALID,0,VALID,96.5173,VALID,-0.0339617,VALID,19.2006,VALID,115,VALID,1.04914,
2003-06-07, 02:57:00,VALID,916.289,VALID,0,VALID,96.4474,VALID,-0.0339617,VALID,19.2071,VALID,118,VALID,1.00067,
2003-06-07, 02:58:00,VALID,916.283,VALID,0,VALID,96.4525,VALID,-0.0679233,VALID,19.2103,VALID,134,VALID,1.04665,
2003-06-07, 02:59:00,VALID,916.278,VALID,0,VALID,96.4372,VALID,-0.101885,VALID,19.1902,VALID,127,VALID,0.885617,
2003-06-07, 03:00:00,VALID,916.27,VALID,0,VALID,96.1231,VALID,-0.0339617,VALID,19.1743,VALID,80,VALID,1.06296,
2003-06-07, 03:01:00,VALID,916.263,VALID,0,VALID,96.2617,VALID,-0.0339617,VALID,19.1261,VALID,106,VALID,1.14107,
2003-06-07, 03:02:00,VALID,916.253,VALID,0,VALID,96.2986,VALID,-0.0509425,VALID,19.1132,VALID,111,VALID,0.937695,
2003-06-07, 03:03:00,VALID,916.25,VALID,0,VALID,96.1842,VALID,-0.0509425,VALID,19.08,VALID,117,VALID,0.591964,
2003-06-07, 03:04:00,VALID,916.249,VALID,0,VALID,96.1893,VALID,0,VALID,19.0482,VALID,93,VALID,0.743336,
2003-06-07, 03:05:00,VALID,916.246,VALID,0,VALID,96.441,VALID,-0.0509425,VALID,19.0025,VALID,105,VALID,1.14967,
2003-06-07, 03:06:00,VALID,916.231,VALID,0,VALID,96.6267,VALID,-0.0339617,VALID,18.9772,VALID,108,VALID,1.18884,
2003-06-07, 03:07:00,VALID,916.221,VALID,0,VALID,96.7348,VALID,0,VALID,18.944,VALID,84,VALID,0.82433,
2003-06-07, 03:08:00,VALID,916.212,VALID,0,VALID,96.7271,VALID,-0.0339617,VALID,18.9322,VALID,72,VALID,0.952925,
2003-06-07, 03:09:00,VALID,916.19,VALID,0,VALID,96.6636,VALID,-0.0169808,VALID,18.8995,VALID,62,VALID,1.17877,
2003-06-07, 03:10:00,VALID,916.179,VALID,0,VALID,96.9471,VALID,-0.0169808,VALID,18.9124,VALID,76,VALID,1.57768,
2003-06-07, 03:11:00,VALID,916.176,VALID,0,VALID,97.0145,VALID,-0.0509425,VALID,18.9578,VALID,77,VALID,1.59844,
2003-06-07, 03:12:00,VALID,916.148,VALID,0,VALID,96.6928,VALID,-0.0169808,VALID,18.9829,VALID,64,VALID,1.35357,
2003-06-07, 03:13:00,VALID,916.126,VALID,0,VALID,96.497,VALID,0,VALID,19.0025,VALID,74,VALID,1.39637,
2003-06-07, 03:14:00,VALID,916.14,VALID,0,VALID,96.2223,VALID,0.0169808,VALID,18.9891,VALID,58,VALID,1.57401,
2003-06-07, 03:15:00,VALID,916.135,VALID,0,VALID,96.2427,VALID,0,VALID,18.9958,VALID,72,VALID,1.42188,
2003-06-07, 03:16:00,VALID,916.152,VALID,0,VALID,96.3749,VALID,0,VALID,18.9988,VALID,78,VALID,1.38371,
2003-06-07, 03:17:00,VALID,916.168,VALID,0,VALID,96.3775,VALID,0,VALID,19.0212,VALID,75,VALID,1.15244,
2003-06-07, 03:18:00,VALID,916.143,VALID,0,VALID,96.4118,VALID,0,VALID,19.0897,VALID,73,VALID,1.41245,
2003-06-07, 03:19:00,VALID,916.124,VALID,0,VALID,96.1041,VALID,0,VALID,19.1445,VALID,89,VALID,1.3375,
2003-06-07, 03:20:00,VALID,916.118,VALID,0,VALID,96.0138,VALID,-0.0169808,VALID,19.2317,VALID,91,VALID,1.21992,
2003-06-07, 03:21:00,VALID,916.111,VALID,0,VALID,95.8739,VALID,0,VALID,19.3156,VALID,96,VALID,1.1192,
2003-06-07, 03:22:00,VALID,916.105,VALID,0,VALID,95.3996,VALID,0,VALID,19.3836,VALID,71,VALID,1.10317,
2003-06-07, 03:23:00,VALID,916.104,VALID,0,VALID,95.2381,VALID,-0.0169808,VALID,19.4189,VALID,84,VALID,1.0808,
2003-06-07, 03:24:00,VALID,916.108,VALID,0,VALID,94.8719,VALID,-0.0169808,VALID,19.448,VALID,94,VALID,0.921652,
2003-06-07, 03:25:00,VALID,916.096,VALID,0,VALID,94.9418,VALID,0,VALID,19.4931,VALID,125,VALID,0.925223,
2003-06-07, 03:26:00,VALID,916.106,VALID,0,VALID,94.8414,VALID,0,VALID,19.522,VALID,119,VALID,0.985777,
2003-06-07, 03:27:00,VALID,916.114,VALID,0,VALID,94.774,VALID,0,VALID,19.5679,VALID,110,VALID,1.25345,
2003-06-07, 03:28:00,VALID,916.116,VALID,0,VALID,94.5794,VALID,0,VALID,19.5964,VALID,120,VALID,1.58214,
2003-06-07, 03:29:00,VALID,916.106,VALID,0,VALID,94.2488,VALID,0,VALID,19.6287,VALID,137,VALID,0.912305,
2003-06-07, 03:30:00,VALID,916.102,VALID,0,VALID,93.969,VALID,-0.0169808,VALID,19.6128,VALID,99,VALID,0.814732,
2003-06-07, 03:31:00,VALID,916.098,VALID,0,VALID,94.0224,VALID,0,VALID,19.5902,VALID,99,VALID,0.977941,
2003-06-07, 03:32:00,VALID,916.095,VALID,0,VALID,94.3988,VALID,0,VALID,19.5704,VALID,102,VALID,1.3896,
2003-06-07, 03:33:00,VALID,916.081,VALID,0,VALID,94.3823,VALID,0,VALID,19.5768,VALID,121,VALID,1.10312,
2003-06-07, 03:34:00,VALID,916.07,VALID,0,VALID,94.3709,VALID,-0.0169808,VALID,19.59,VALID,106,VALID,1.28929,